Dax, France

12:43 PM CEST on August 26, 2016 (GMT +0200)
Seyresse Army

Weather History for LFBY - January, 2013

Change the Weather History Date:

Thursday, January 10, 2013

  Actual Average (LFBZ) Record (LFBZ)
Temperature  
Mean Temperature 50 °F -  
Max Temperature 59 °F 51 °F 62 °F (2001)
Min Temperature 41 °F 39 °F 28 °F (2003)
Degree Days  
Heating Degree Days 15    
Moisture  
Dew Point 45 °F    
Average Humidity 89    
Maximum Humidity 100    
Minimum Humidity 67    
Precipitation  
Precipitation 0.00 in - - ()
Sea Level Pressure  
Sea Level Pressure 30.20 in    
Wind  
Wind Speed 3 mph ()    
Max Wind Speed 13 mph    
Max Gust Speed -    
Visibility 4.5 miles    
Events Rain    
Averages and records for this station are not official NWS values.
T = Trace of Precipitation, MM = Missing Value Source: Averaged Metar Reports

Daily Weather History Graph

Daily Weather History Graph

Search for Another Location

Airport or City:

Trip Planner

Search our weather history database for the weather conditions in past years. The results will help you decide how hot, cold, wet, or windy it might be!

Date:

Astronomy

Jan. 10, 2013 Rise Set
Actual Time 8:36 AM CET 5:47 PM CET
Civil Twilight 8:04 AM CET 6:19 PM CET
Nautical Twilight 7:28 AM CET 6:55 PM CET
Astronomical Twilight 6:54 AM CET 7:29 PM CET
Moon 7:02 AM CET (1/10) 4:38 PM CET (1/10)
Length of Visible Light 10h 14m
Length of Day
9h 10m
Waning Crescent, 3% of the Moon is Illuminated
Jan 10
Waning Crescent
Jan 11
New
Jan 19
First Quarter
Jan 27
Full
Feb 3
Last Quarter

Hourly Weather History & Observations

Time (CET) Temp. Windchill Dew Point Humidity Pressure Visibility Wind Dir Wind Speed Gust Speed Precip Events Conditions
12:00 AM 41.0 °F - 39.2 °F 93% 30.21 in - Calm Calm - N/A   Unknown
1:00 AM 41.0 °F - 41.0 °F 100% 30.21 in - Variable 2.3 mph - N/A   Unknown
2:00 AM 41.0 °F 39.0 °F 41.0 °F 100% 30.21 in 3.1 mi East 3.5 mph - N/A   Unknown
3:00 AM 42.8 °F - 41.0 °F 93% 30.21 in 3.7 mi ESE 2.3 mph - N/A   Partly Cloudy
4:00 AM 42.8 °F 41.1 °F 41.0 °F 93% 30.18 in 3.7 mi ESE 3.5 mph - N/A   Mostly Cloudy
5:00 AM 42.8 °F - 41.0 °F 93% 30.18 in 3.7 mi Calm Calm - N/A   Mostly Cloudy
6:00 AM 42.8 °F - 41.0 °F 93% 30.18 in 3.7 mi SE 2.3 mph - N/A   Overcast
7:00 AM 44.6 °F - 42.8 °F 93% 30.18 in 3.1 mi SE 1.2 mph - N/A Rain Light Rain
8:00 AM 44.6 °F 43.1 °F 42.8 °F 93% 30.18 in 2.5 mi SE 3.5 mph - N/A Rain Light Rain
8:30 AM 44.6 °F - 42.8 °F 93% 30.18 in 1.9 mi Calm Calm - N/A   Mostly Cloudy
9:00 AM 44.6 °F - 42.8 °F 93% 30.18 in 2.8 mi Calm Calm - N/A   Mostly Cloudy
9:30 AM 44.6 °F - 44.6 °F 100% 30.18 in 6.2 mi South 2.3 mph - N/A   Mostly Cloudy
10:00 AM 48.2 °F - 46.4 °F 93% 30.18 in 3.7 mi SSW 4.6 mph - N/A   Mostly Cloudy
10:53 AM 51.8 °F - 50.0 °F 94% 30.18 in 6.2 mi SW 5.8 mph - N/A   Mostly Cloudy
1:00 PM 59.0 °F - 50.0 °F 72% 30.18 in 6.2 mi West 9.2 mph - N/A   Mostly Cloudy
3:00 PM 59.0 °F - 48.2 °F 67% 30.15 in 6.2 mi West 12.7 mph - N/A Rain Light Rain Showers
4:00 PM 53.6 °F - 50.0 °F 88% 30.18 in 1.9 mi West 10.4 mph - N/A Rain Light Rain
5:00 PM 53.6 °F - 50.0 °F 88% 30.18 in 2.8 mi WSW 9.2 mph - N/A Rain Light Rain
6:00 PM 53.6 °F - 51.8 °F 94% 30.18 in 6.2 mi WNW 10.4 mph - N/A   Mostly Cloudy
7:00 PM 53.6 °F - 48.2 °F 82% 30.21 in 6.2 mi West 10.4 mph - N/A   Partly Cloudy
8:00 PM 51.8 °F - 46.4 °F 82% 30.21 in 6.2 mi West 8.1 mph - N/A   Unknown
9:00 PM 51.8 °F - 44.6 °F 76% 30.24 in 6.2 mi West 6.9 mph - N/A   Unknown
10:00 PM 50.0 °F - 46.4 °F 87% 30.24 in 6.2 mi WSW 6.9 mph - N/A   Unknown
11:00 PM 50.0 °F - 42.8 °F 76% 30.27 in 6.2 mi WSW 6.9 mph - N/A   Unknown